GEFSNGP_500_meanwind_288.txt.gz
Wind_Speed
29 28 27 26 26 25 24 23 21 20 19 18 18 17 16 16 16 16 16 16 16 16 16 16 17 17 18 18 18 18 18 18 18 17 17 16 16 16 17 18 18 18 19 19
31 30 29 28 27 26 26 25 24 23 23 22 20 19 18 18 18 19 18 19 19 19 19 19 19 20 20 21 21 21 21 21 20 20 19 18 18 19 19 19 20 20 20 20
32 31 31 31 30 28 28 27 26 25 25 25 23 22 20 20 20 21 21 21 21 21 21 21 21 22 22 23 24 23 23 23 23 23 22 21 21 21 21 21 21 21 21 21
33 33 33 31 30 30 29 29 28 28 27 26 26 24 23 22 22 23 23 23 23 23 24 24 24 24 25 25 25 24 25 25 25 24 24 23 23 23 22 22 22 22 22 23
34 34 33 33 31 30 30 31 30 29 28 28 28 27 26 25 25 25 25 25 25 25 26 26 26 26 27 27 27 26 26 25 25 24 25 25 24 24 25 25 24 24 24 24
36 34 33 33 32 31 30 31 31 30 30 30 29 29 28 27 27 27 27 27 27 27 27 27 27 28 28 28 28 27 27 27 26 26 26 27 26 26 27 27 27 27 26 26
37 35 34 34 33 31 32 32 31 30 30 30 31 31 30 29 29 29 29 29 29 29 29 29 29 29 30 29 29 29 29 29 29 29 29 28 28 28 28 28 28 28 28 28
37 36 35 35 34 34 33 33 32 31 30 30 30 31 31 31 31 31 31 31 31 31 31 31 31 31 31 31 31 31 31 30 30 31 31 29 29 29 30 30 30 30 30 30
38 38 37 35 34 34 34 33 32 32 31 31 31 31 32 32 32 33 33 33 32 32 33 33 33 32 32 33 33 33 32 32 31 32 31 31 31 31 31 31 31 31 31 31
37 37 37 36 35 35 34 33 32 32 32 32 32 32 33 33 33 33 33 33 34 34 34 34 34 34 33 34 34 34 34 34 33 33 33 33 33 33 32 32 32 31 31 32
37 36 35 35 34 34 34 34 34 34 33 33 33 34 34 34 34 34 34 34 34 34 34 34 35 35 36 36 36 35 35 35 34 34 34 34 34 33 34 34 33 33 33 34
36 35 34 34 35 35 35 35 34 35 35 35 35 35 35 35 35 35 36 36 35 35 36 36 37 37 36 36 36 36 36 35 36 36 35 35 35 35 35 35 35 35 35 35
35 34 34 34 34 35 35 35 35 35 35 35 35 35 35 35 36 36 37 37 38 38 38 38 39 38 38 38 37 37 37 37 37 37 36 36 37 37 37 37 37 37 37 37
34 34 34 34 34 34 35 34 34 35 35 35 35 36 36 36 36 37 37 38 39 40 40 40 40 40 40 39 39 39 39 39 39 39 39 39 39 40 40 39 39 39 39 39
33 34 33 33 33 34 34 34 34 34 34 35 36 36 37 37 38 37 37 38 39 40 40 41 41 41 40 40 40 40 41 41 40 40 40 40 41 41 41 41 41 40 39 39
33 32 32 32 32 33 33 33 34 34 34 34 34 34 35 37 37 37 38 38 39 39 40 40 40 41 41 40 40 40 40 41 41 41 42 42 42 42 41 41 41 40 40 39
31 31 31 32 32 32 32 32 32 32 33 33 33 33 34 34 35 36 37 38 39 39 40 40 40 40 40 41 41 41 41 41 42 42 42 42 42 41 41 41 41 40 40 39
29 30 30 30 30 30 31 32 32 32 32 32 32 33 34 35 35 36 37 38 39 39 40 40 41 41 41 42 42 42 42 43 43 43 42 42 41 41 41 40 40 40 40 40
28 29 29 29 30 30 31 31 31 31 32 32 33 33 34 35 35 36 37 37 38 39 39 40 41 41 41 41 41 41 41 42 42 42 42 42 41 41 40 39 40 40 40 40
26 26 27 27 28 29 29 29 29 30 31 32 32 33 33 33 34 34 35 36 36 37 38 39 39 40 40 40 40 40 40 41 41 40 41 41 41 40 40 40 39 40 39 39
24 25 25 26 26 27 27 28 29 29 30 31 32 33 32 32 32 33 33 34 35 36 37 37 38 38 38 38 38 39 38 38 38 38 39 39 39 40 39 39 40 39 39 38
23 23 24 24 26 26 26 27 27 28 29 28 29 30 30 30 31 32 33 34 34 35 35 36 36 36 37 37 37 38 38 38 38 38 38 38 38 38 38 38 38 38 38 38
22 22 23 24 25 25 25 25 26 26 26 26 27 28 29 29 30 31 32 33 33 34 34 35 35 36 36 36 36 37 37 37 37 37 37 37 37 37 37 36 36 36 36 36
21 22 22 22 23 23 23 23 24 24 25 26 27 28 28 28 29 30 31 31 32 32 33 33 34 34 34 35 35 36 35 35 35 35 35 35 35 35 35 34 34 34 34 34
20 20 20 20 21 22 22 23 24 24 25 26 26 26 27 27 28 28 29 30 30 31 31 32 32 32 32 32 33 33 33 33 33 33 33 33 33 33 32 32 32 32 31 31
19 19 20 21 21 22 22 23 23 24 24 25 26 26 26 27 27 28 28 29 29 29 29 29 29 29 29 30 30 31 31 31 31 30 30 30 30 30 30 30 29 28 28 28
18 18 19 19 20 20 21 21 22 23 23 24 24 24 25 25 26 26 27 26 26 26 26 26 26 27 27 27 27 27 27 28 28 27 27 27 28 28 28 27 27 27 27 28

GEFSNGP_500_meanwind_294.txt.gz
Wind_Speed
28 25 23 23 22 20 21 22 21 19 19 18 20 20 19 19 20 19 19 18 18 17 17 17 18 18 18 18 18 19 19 20 21 21 20 20 20 20 20 20 20 20 20 20
31 29 26 24 24 22 21 21 21 22 21 21 22 23 23 22 20 20 20 20 19 19 19 20 20 20 20 20 20 20 21 22 23 22 22 22 22 22 21 22 22 22 22 22
33 31 29 28 26 25 25 24 24 24 24 23 24 25 24 24 22 20 21 21 21 21 21 21 22 22 22 22 22 22 23 23 24 24 23 24 24 23 23 24 24 24 24 24
33 31 32 30 26 26 27 27 27 27 25 26 28 28 27 26 24 23 24 24 23 24 24 23 24 24 25 25 25 25 25 26 26 26 25 25 25 25 26 26 26 26 26 26
34 33 33 30 28 28 30 31 30 29 27 28 29 30 30 30 28 26 26 26 26 27 26 25 26 26 27 27 27 27 27 27 28 28 27 26 26 27 27 28 28 28 28 27
34 34 33 30 30 32 33 33 31 30 30 31 30 29 30 32 30 29 28 28 29 29 28 28 28 29 29 29 29 29 29 29 29 29 28 28 28 29 29 29 29 31 30 29
34 34 34 33 32 33 33 35 33 32 31 32 32 31 32 33 33 32 31 31 31 31 31 30 30 31 31 31 31 31 32 31 31 31 31 30 30 30 31 31 31 32 31 30
35 35 34 34 35 36 36 35 34 33 32 32 33 33 33 33 33 34 33 33 33 33 33 33 33 33 33 33 33 33 33 33 33 33 33 32 32 32 32 33 33 33 33 32
36 36 36 36 36 37 37 36 35 35 35 34 33 35 35 34 34 34 34 34 34 34 33 33 34 34 34 34 34 35 35 35 34 35 35 35 34 35 35 35 35 35 35 34
36 37 38 38 37 37 38 38 38 37 36 36 35 35 36 36 36 35 35 35 35 35 35 34 34 35 35 36 36 36 37 37 37 37 37 37 36 37 37 37 37 36 36 36
38 39 39 39 40 39 38 39 39 39 39 37 36 36 36 36 36 36 36 36 36 36 35 35 35 35 36 37 37 38 38 38 38 39 38 38 38 38 38 37 38 37 37 37
40 39 38 38 39 40 40 39 39 39 39 38 36 35 36 36 36 36 36 36 35 35 36 35 36 37 38 38 39 39 39 40 40 40 40 40 40 39 39 38 38 37 37 37
37 37 38 38 38 38 39 39 39 39 39 38 37 37 37 37 37 37 37 37 37 37 37 37 38 38 39 39 40 40 41 41 40 41 41 40 40 40 40 39 38 38 37 37
37 36 38 38 37 38 38 39 39 39 38 38 38 38 39 39 39 38 37 38 38 38 38 39 40 40 40 40 41 41 41 42 42 43 43 43 42 42 41 40 39 39 38 38
37 37 36 36 35 35 36 37 38 38 38 38 38 38 39 39 38 38 37 38 38 38 39 40 40 40 41 41 41 41 41 41 42 43 43 43 42 42 42 41 40 40 40 40
35 35 34 34 34 33 34 35 35 35 36 37 38 38 38 38 37 37 38 38 39 39 39 40 40 41 42 42 42 42 41 41 42 43 43 42 42 42 42 43 42 42 41 41
32 33 33 32 33 33 34 35 34 34 34 35 37 37 37 38 37 36 37 38 39 39 39 40 40 41 41 42 42 42 42 43 43 42 43 43 43 43 43 44 43 43 43 42
31 31 31 31 31 32 32 32 31 32 32 33 34 34 36 37 37 37 37 38 38 39 39 39 40 41 42 42 42 42 42 42 42 42 43 43 43 42 42 42 41 41 42 42
28 29 29 30 30 31 31 31 31 32 33 33 33 33 33 35 35 36 37 37 38 38 37 38 39 39 39 39 40 41 42 41 41 41 42 42 42 42 41 40 40 40 41 41
27 27 28 28 29 30 30 30 31 32 32 32 32 32 33 34 35 35 36 36 36 36 36 37 38 38 37 37 38 39 39 39 40 40 39 39 39 39 39 39 40 40 40 40
25 25 26 27 29 30 30 30 31 30 31 32 32 32 32 33 34 34 34 35 34 35 35 36 36 36 35 36 37 37 37 38 39 39 39 38 38 38 38 39 40 40 41 40
25 25 25 26 26 26 26 26 28 29 29 29 31 31 32 32 33 34 34 34 33 33 34 34 34 35 35 35 36 36 36 37 37 37 37 37 37 38 38 38 39 39 39 39
23 23 24 24 24 25 25 25 26 27 27 28 29 30 30 31 31 32 32 32 31 31 31 32 33 33 34 34 35 34 34 35 35 35 36 36 36 36 36 37 37 38 38 38
21 22 22 22 22 23 23 24 25 25 25 26 27 27 27 27 28 28 29 29 29 30 30 31 32 32 33 33 33 33 34 34 34 35 35 35 35 34 34 35 35 36 36 36
20 19 19 20 20 21 23 24 23 23 24 24 25 26 26 26 27 28 29 29 29 29 30 30 30 31 31 32 32 33 33 33 33 33 33 33 33 34 35 34 34 33 33 32
18 18 19 19 20 20 21 22 22 22 22 23 24 25 25 26 26 27 28 28 28 28 29 29 29 29 30 31 32 31 31 30 30 31 31 32 33 33 33 32 31 30 29 28
18 18 18 18 19 19 20 20 20 21 22 22 23 24 24 25 26 26 26 27 27 27 28 28 28 28 29 29 29 29 29 29 30 30 30 30 30 29 29 28 27 26 25 25

GEFSNGP_500_meanwind_300.txt.gz
Wind_Speed
28 26 27 27 26 25 24 23 22 20 21 21 20 19 18 18 17 16 16 15 15 15 15 16 16 17 17 17 17 17 17 17 17 17 17 17 17 18 18 18 18 18 19 19
30 29 29 28 27 27 27 26 25 23 22 22 23 21 20 20 20 19 18 17 17 17 17 18 18 19 19 19 20 19 20 19 19 19 19 19 19 19 20 20 21 21 21 21
32 32 32 32 29 28 27 27 27 27 26 25 24 24 24 24 23 22 21 21 20 20 20 21 20 21 21 21 21 22 22 22 21 21 21 21 22 22 22 22 23 23 23 23
33 33 35 32 31 30 30 30 29 29 29 28 26 24 24 25 24 24 23 23 23 24 23 23 23 23 23 23 23 24 24 24 24 23 24 23 23 24 23 24 25 25 25 24
35 35 35 33 32 32 32 32 32 30 29 28 27 26 27 26 26 26 27 26 26 26 25 25 25 25 25 25 25 26 26 26 25 25 25 25 25 26 26 27 27 27 26 26
37 37 37 35 33 33 33 34 33 33 32 30 29 29 29 29 28 28 29 28 27 27 27 26 26 26 27 27 27 28 28 28 28 28 28 27 27 27 28 28 28 28 28 28
38 39 38 36 34 33 35 34 33 34 34 32 32 32 31 31 31 30 30 30 29 29 28 28 28 28 29 30 30 30 30 30 29 29 30 30 30 29 29 30 29 29 29 29
38 38 37 36 36 35 33 33 33 34 34 34 34 34 33 32 32 32 32 31 30 29 28 29 30 30 31 31 32 32 32 31 31 31 31 31 31 32 32 32 32 32 31 31
38 37 35 35 34 33 34 33 33 34 34 35 36 35 35 35 34 34 33 33 32 31 30 30 31 32 32 32 32 32 32 32 32 33 33 33 34 34 34 34 34 34 33 33
37 36 35 34 35 34 34 34 33 34 34 35 35 36 37 36 36 35 33 34 34 32 32 32 33 34 34 34 34 33 33 33 33 33 34 34 35 35 36 36 36 36 36 35
36 35 34 34 34 34 35 35 35 35 34 34 35 35 36 37 36 36 36 36 35 34 34 34 34 35 35 35 35 35 34 34 34 35 36 36 36 36 37 37 38 38 37 36
36 35 35 34 33 34 35 36 36 36 36 36 35 36 36 37 37 36 35 35 36 36 35 35 35 35 36 36 36 35 35 36 37 37 38 38 38 39 39 40 40 39 39 40
35 35 36 36 35 35 35 35 36 36 37 37 37 38 37 36 36 35 35 36 37 37 37 37 36 35 36 37 37 37 37 38 38 39 39 40 41 41 41 41 41 41 41 41
35 35 36 37 37 37 37 37 37 37 37 37 37 38 38 37 38 37 38 38 38 38 38 38 37 37 37 37 38 38 39 39 40 40 41 42 42 42 42 42 42 41 41 40
37 37 37 38 38 38 37 37 37 37 38 37 37 38 38 38 38 37 38 38 38 38 38 38 37 37 37 38 38 39 39 40 40 41 42 42 43 43 43 42 42 41 41 40
36 36 36 37 37 37 37 38 38 38 38 38 37 37 37 37 36 36 38 38 37 37 37 37 37 37 37 38 39 40 40 40 40 41 42 42 41 41 41 41 41 41 40 38
32 34 35 36 36 37 38 38 38 38 39 39 38 37 37 36 36 36 36 36 36 36 37 37 38 38 38 39 40 41 41 41 41 40 40 40 39 39 39 38 39 39 38 38
30 31 32 32 34 35 36 36 36 37 38 38 37 36 36 36 36 36 37 37 36 36 37 37 37 37 38 39 39 40 40 39 39 39 38 38 38 39 39 38 38 38 37 37
27 28 29 30 31 31 32 32 33 34 34 34 34 35 35 34 34 34 35 35 36 36 36 36 36 36 36 37 37 37 37 37 37 38 38 38 38 38 38 38 39 38 38 37
26 27 27 27 28 28 28 29 30 30 31 32 32 33 33 33 34 34 34 34 34 34 34 34 34 35 35 36 36 36 36 36 36 36 36 36 36 36 36 37 37 37 37 37
24 25 25 24 24 24 25 27 28 29 29 29 30 30 30 31 32 32 32 31 31 32 33 34 34 34 34 34 34 34 34 34 34 34 34 34 34 35 35 36 36 36 36 37
22 22 23 22 21 22 23 24 25 26 27 27 27 28 28 29 30 29 29 30 30 31 32 33 33 33 33 33 32 32 32 32 32 32 33 33 33 34 34 34 35 35 36 36
21 22 21 20 20 21 21 22 23 23 24 25 25 26 27 28 28 28 28 29 30 30 31 31 31 31 31 31 31 31 31 31 32 31 31 32 33 33 33 33 34 34 34 34
20 20 20 19 19 20 20 20 21 23 23 23 24 25 25 25 26 27 28 28 28 28 28 28 29 29 29 30 30 30 31 31 30 30 31 31 31 31 32 32 32 32 32 32
19 19 19 19 19 19 20 20 20 21 21 22 22 22 23 23 24 24 25 26 26 26 26 27 27 28 28 28 29 29 29 29 28 28 28 28 28 28 29 29 29 29 29 28
16 17 17 18 18 18 18 19 20 20 20 20 20 20 20 21 22 23 23 23 23 24 25 25 26 26 27 27 27 26 25 25 25 25 26 26 26 25 25 26 26 26 26 26
14 15 16 17 17 18 17 18 18 19 19 19 19 19 20 21 21 22 22 22 22 23 24 25 25 25 25 25 25 25 25 25 24 24 24 24 24 24 25 25 25 24 24 23

GEFSNGP_500_meanwind_306.txt.gz
Wind_Speed
29 28 28 27 27 27 27 27 26 25 24 22 21 19 18 18 19 18 18 17 17 17 16 16 16 16 17 17 18 18 18 18 18 19 19 19 19 20 21 21 21 21 21 21
32 31 30 30 29 28 28 28 28 28 26 24 23 22 21 21 20 20 20 20 19 18 19 19 19 18 18 19 19 19 20 20 20 21 21 21 22 23 23 23 24 24 23 23
34 33 33 32 30 30 30 29 29 29 27 27 25 24 24 23 22 22 22 22 22 21 22 22 22 21 20 20 21 21 21 22 22 22 23 24 24 25 25 26 26 25 25 25
35 34 36 33 31 31 31 31 31 30 29 28 27 26 26 25 24 24 24 24 24 24 24 24 24 24 23 23 23 24 23 24 24 24 25 26 26 27 27 27 28 27 27 27
36 36 35 34 32 31 32 32 31 31 30 30 29 28 28 28 28 27 26 26 26 26 26 26 26 26 26 26 25 25 25 25 27 27 27 27 28 29 30 30 30 29 29 29
36 36 36 33 32 32 33 33 31 31 31 30 30 30 29 29 30 29 29 28 28 27 28 28 28 28 28 28 27 27 27 28 29 30 30 30 30 31 31 31 31 31 31 31
37 37 36 33 33 33 34 33 32 31 31 30 30 31 30 30 31 30 30 29 29 29 30 30 30 30 30 31 30 30 30 30 31 32 32 32 33 33 33 32 33 33 33 32
38 38 36 34 34 33 33 33 33 33 32 32 32 31 31 32 32 32 32 32 32 32 32 32 33 33 33 33 33 33 33 33 33 33 34 34 34 34 35 35 35 34 34 34
38 38 36 36 35 34 34 34 34 35 35 34 33 33 32 33 33 34 35 35 35 35 34 34 35 35 35 35 34 34 34 34 35 35 36 35 36 36 36 36 36 35 35 35
38 37 36 36 35 35 35 35 35 36 36 35 34 33 33 34 35 35 36 37 36 36 36 36 36 36 36 37 36 36 36 36 36 37 37 36 37 37 37 37 37 37 37 37
37 36 36 36 36 36 35 36 36 36 36 36 35 33 33 35 36 35 35 36 37 38 37 36 37 37 36 37 37 37 38 38 38 38 38 38 38 38 38 38 39 39 39 39
36 36 35 35 36 36 35 35 36 37 37 36 36 35 35 35 35 36 36 36 36 36 36 36 37 37 36 37 38 38 37 38 39 39 39 39 39 38 39 40 40 40 40 40
36 36 36 35 36 36 35 35 35 36 36 36 36 36 36 35 35 37 37 37 37 36 37 37 37 36 36 37 38 39 39 39 39 39 39 40 39 39 39 40 40 41 41 42
35 36 36 36 35 35 35 35 35 35 35 35 35 36 36 37 37 37 38 38 38 37 37 37 37 37 37 38 39 39 39 39 39 39 39 39 39 39 40 40 40 41 41 42
35 34 34 34 35 34 34 34 34 35 35 35 36 36 37 37 37 37 38 38 38 37 36 36 36 36 37 39 40 40 40 40 39 39 38 39 39 40 40 40 40 41 41 42
33 33 33 33 34 34 33 33 34 34 35 36 37 37 37 38 38 38 38 39 38 37 37 37 37 37 38 40 40 40 40 40 40 40 39 39 39 40 40 40 40 41 41 41
31 31 31 31 31 32 33 33 34 33 34 36 37 38 38 38 38 38 38 38 38 38 37 37 37 37 38 39 39 40 40 40 39 40 40 40 40 40 41 42 41 41 41 41
30 29 30 30 30 31 32 33 33 33 34 35 35 36 37 37 37 37 38 39 38 36 36 36 37 37 37 38 39 39 40 40 39 39 39 40 41 41 41 41 41 40 39 39
28 29 30 29 29 29 29 30 31 32 33 33 33 34 35 36 37 37 37 36 36 36 36 36 36 36 37 38 38 39 39 39 38 38 38 39 39 39 39 39 39 38 37 36
27 28 28 28 28 29 29 29 30 30 31 32 32 32 33 33 34 34 34 34 35 36 36 36 35 35 36 36 37 37 37 37 37 37 37 37 37 37 37 37 37 36 35 33
26 26 26 26 28 28 29 29 30 31 31 31 31 31 31 32 33 32 32 33 34 34 35 35 34 34 35 35 36 35 35 35 35 35 36 36 36 35 35 34 34 33 32 32
25 25 25 26 26 27 27 27 28 28 29 30 29 29 30 30 30 30 30 31 31 32 32 33 33 33 34 34 33 33 33 33 33 33 34 34 34 33 32 32 32 31 31 32
24 23 24 24 25 25 25 25 26 27 27 27 27 27 28 29 29 29 29 29 29 29 30 31 31 32 32 31 31 31 31 31 32 32 31 31 31 31 30 30 30 29 29 29
24 24 24 24 23 23 22 22 23 24 24 24 24 25 26 27 27 26 26 26 26 27 28 28 29 29 29 29 29 28 29 29 29 29 29 29 29 28 28 28 28 27 27 27
22 22 22 22 21 21 21 21 21 21 22 23 23 23 24 23 23 23 23 24 24 24 24 24 25 26 26 26 26 26 27 28 28 27 27 27 27 26 26 26 26 25 25 25
17 17 18 18 18 18 19 19 20 20 21 22 21 21 21 20 20 21 21 21 21 21 22 22 23 24 23 24 24 25 25 25 24 24 24 24 24 24 25 25 25 25 25 25
16 16 16 18 19 19 18 17 17 17 18 18 19 19 19 18 18 19 20 21 21 21 21 21 22 22 23 23 23 24 23 22 22 22 22 23 24 24 24 23 23 23 23 23

GEFSNGP_500_meanwind_312.txt.gz
Wind_Speed
29 28 27 27 26 25 24 24 24 23 22 21 20 19 18 18 18 18 19 19 19 19 18 18 19 19 19 19 20 20 20 19 19 19 19 20 20 20 20 21 22 22 23 23
30 29 30 29 28 27 27 26 26 25 24 22 22 21 20 20 20 20 20 21 21 21 21 21 21 21 21 21 21 22 21 21 21 21 21 21 21 22 23 23 24 24 24 24
31 30 31 31 29 28 29 28 27 27 26 25 24 23 21 21 22 21 21 21 22 22 23 23 24 24 24 24 24 24 24 24 24 24 24 23 24 24 25 26 26 26 26 26
32 33 35 32 29 29 30 29 29 29 27 27 26 25 24 23 23 23 23 24 24 25 25 26 26 26 26 27 26 26 26 27 27 27 27 27 27 27 28 28 27 28 28 28
34 34 35 34 31 31 31 30 29 29 28 28 26 26 27 26 26 25 25 26 26 27 28 28 28 28 28 28 29 29 29 29 30 30 30 29 29 30 30 31 30 30 31 31
35 35 34 32 31 30 30 31 30 29 29 28 28 28 28 27 28 27 28 28 28 29 29 29 30 30 30 30 30 30 30 31 32 32 32 32 32 32 33 33 33 33 33 34
35 35 34 32 30 29 30 30 30 30 30 29 29 29 29 29 30 29 29 30 29 29 30 31 32 31 31 31 31 32 32 33 33 34 34 34 35 35 35 35 35 35 35 36
35 34 34 33 32 31 31 30 31 30 30 30 30 30 30 30 31 31 31 31 30 29 30 31 32 33 33 32 33 33 34 34 34 35 36 36 37 37 37 37 37 37 37 37
34 33 33 32 32 31 31 31 32 32 31 30 30 30 30 31 32 32 32 32 31 31 31 31 32 33 33 33 34 35 35 36 36 37 38 39 39 39 39 39 39 39 39 38
33 33 32 32 32 31 31 32 32 32 32 32 32 31 32 32 32 32 32 32 32 32 32 32 33 34 35 36 36 36 36 37 37 38 39 40 40 40 41 41 40 40 40 39
33 32 32 32 32 32 32 32 32 32 33 33 33 32 33 33 32 32 33 33 34 34 33 34 35 36 36 37 37 37 37 38 38 38 40 40 41 41 41 41 41 41 41 40
33 33 33 33 33 33 33 33 33 32 32 33 34 34 34 34 34 33 33 34 34 35 35 35 36 36 37 37 36 36 36 38 39 39 40 41 42 41 41 42 41 41 41 41
35 34 35 34 34 34 33 33 33 33 32 32 33 34 34 34 34 34 34 35 35 35 36 36 37 37 37 37 37 36 37 38 39 40 40 41 42 41 41 40 40 41 42 42
35 35 35 34 34 33 33 33 33 33 33 32 32 33 34 34 35 35 35 36 36 37 37 37 37 38 38 38 38 37 37 38 39 40 41 41 41 41 40 41 41 41 40 40
34 34 35 34 34 34 33 32 32 32 33 34 33 33 34 35 35 36 36 36 37 37 38 38 38 38 38 38 38 38 38 38 39 40 39 40 40 40 40 39 39 39 39 39
34 34 34 34 34 33 33 33 33 32 32 34 35 35 35 35 36 37 38 38 37 37 38 38 38 38 37 37 38 38 39 38 38 38 39 38 38 38 38 37 37 38 38 39
33 34 34 34 34 33 34 34 33 32 32 33 34 35 35 36 36 37 38 38 38 37 36 37 37 38 37 38 38 39 39 38 37 37 37 37 38 38 38 37 36 36 36 36
31 31 31 32 32 32 31 32 32 32 32 32 32 33 34 35 35 35 35 35 35 35 36 36 36 37 37 38 38 38 38 37 36 36 37 37 37 36 36 36 34 34 35 34
29 29 29 30 30 29 29 30 31 31 31 31 31 32 33 33 33 33 34 34 33 34 34 35 36 36 37 37 38 37 37 36 35 35 35 34 34 34 34 33 33 33 31 30
27 27 28 28 28 28 29 29 30 30 30 30 30 31 31 31 31 31 32 32 32 33 34 34 34 34 35 35 35 34 34 34 33 33 33 33 32 32 32 31 30 30 29 29
24 24 25 25 25 25 26 27 28 28 28 28 28 29 29 29 30 30 31 31 31 31 32 32 33 33 33 33 33 32 31 32 32 32 32 31 31 31 30 30 29 29 28 28
22 22 22 22 23 23 24 25 26 26 27 27 27 27 27 28 28 29 29 29 29 30 30 31 31 31 31 31 31 30 30 30 30 30 30 30 30 30 29 29 29 28 27 27
22 21 21 21 21 21 22 22 22 23 24 24 24 24 24 25 26 27 27 27 27 28 28 28 28 28 28 29 28 28 28 29 28 28 29 29 28 28 28 28 28 28 28 27
21 21 21 20 20 20 20 20 20 20 20 21 21 21 22 22 22 22 23 24 24 24 24 24 24 24 25 25 25 25 25 26 26 26 27 27 27 27 27 27 27 27 26 26
20 20 19 19 18 18 18 18 18 18 19 19 19 19 20 20 20 20 21 21 21 21 21 21 21 21 21 21 22 23 24 24 25 25 25 24 24 25 25 26 25 25 24 24
18 17 16 16 17 17 18 18 17 18 19 18 18 18 19 19 19 18 19 19 18 18 19 20 20 20 20 21 22 22 23 23 22 22 22 22 23 23 23 22 22 22 22 23
15 14 15 15 16 17 18 18 18 17 17 18 18 18 18 18 17 17 18 18 17 18 18 19 19 19 20 20 21 21 21 21 21 21 21 22 22 22 21 21 21 22 22 23

GEFSNGP_500_meanwind_318.txt.gz
Wind_Speed
25 23 23 22 21 20 20 21 21 19 21 22 22 23 22 22 22 21 22 22 23 22 21 21 21 21 21 21 22 22 22 23 23 23 23 23 23 24 23 24 24 24 25 25
28 26 26 25 24 22 22 22 23 22 22 23 23 25 25 25 24 22 22 23 24 24 23 23 23 23 23 23 24 24 24 24 25 25 25 25 25 26 26 26 27 27 27 27
30 29 29 28 25 25 24 23 24 25 25 26 25 26 26 27 27 26 25 24 25 25 24 23 25 24 25 25 25 26 26 26 27 27 27 27 28 28 29 29 29 29 29 30
30 29 31 29 27 28 27 27 27 28 28 28 28 27 29 28 28 27 27 27 27 27 25 25 26 25 25 26 27 27 28 28 28 29 29 29 30 30 31 32 32 32 31 32
30 31 31 29 28 27 28 30 29 30 31 31 30 29 30 30 29 28 29 29 29 29 29 29 28 29 28 29 29 29 30 30 30 30 31 31 31 32 33 34 34 34 33 34
31 31 31 30 29 27 28 31 32 32 32 34 32 30 32 32 31 30 30 31 32 31 31 30 30 31 30 30 31 31 31 31 31 31 32 33 33 34 34 35 35 36 36 36
32 32 31 29 28 28 29 32 32 32 33 34 33 33 34 35 33 32 33 33 33 33 33 32 32 31 31 31 32 32 32 32 32 33 33 33 34 35 36 37 37 37 38 38
34 34 34 31 30 31 32 31 33 33 33 34 35 35 36 35 34 34 34 34 34 34 34 34 33 33 32 32 32 32 32 33 33 34 34 35 35 37 38 38 38 39 39 38
34 35 35 33 33 33 33 33 34 34 34 35 35 35 37 36 35 35 35 35 34 34 34 33 33 33 33 33 33 33 33 33 34 35 36 37 37 39 39 40 40 39 39 39
34 35 36 36 36 36 36 35 35 35 35 34 35 36 36 36 36 35 35 34 35 35 34 34 33 33 34 34 34 34 34 34 34 36 36 37 39 39 40 40 40 39 38 39
37 37 37 37 36 37 37 35 36 35 35 36 36 36 36 37 36 36 35 35 35 35 35 35 34 34 35 35 35 36 36 36 37 37 37 38 38 38 40 41 40 38 38 39
37 36 37 37 37 36 36 35 35 36 35 35 36 36 36 36 36 36 36 36 36 36 35 35 35 36 36 36 36 37 37 37 38 38 39 40 40 40 40 41 39 38 39 40
37 37 37 37 37 36 36 35 35 35 35 35 35 36 36 36 36 36 36 36 36 36 36 36 36 37 37 37 37 37 37 38 38 38 39 39 39 39 40 39 38 38 39 39
36 36 36 37 36 36 37 36 36 36 36 36 35 36 37 37 36 36 36 36 36 37 37 37 37 37 37 37 38 37 37 38 38 38 39 39 40 40 40 39 39 38 38 39
37 37 37 37 37 37 37 36 36 36 36 36 36 36 37 37 36 35 35 36 36 37 38 38 37 37 37 37 37 37 38 38 38 39 39 39 39 40 40 39 39 38 38 37
37 37 37 37 38 37 37 36 36 36 36 36 36 36 36 35 35 36 36 36 36 37 38 38 37 37 37 37 37 37 37 37 38 39 40 39 38 39 40 39 38 37 37 36
35 35 35 36 36 36 36 36 36 36 35 36 35 35 35 35 34 34 34 36 36 37 37 37 37 37 38 38 37 37 37 38 38 39 39 38 39 39 39 39 38 37 35 34
34 34 35 35 35 35 36 35 35 36 36 36 36 36 35 33 33 33 34 34 34 35 35 35 35 36 36 36 37 37 38 38 37 38 38 38 37 37 37 38 38 36 34 33
33 33 34 34 34 35 35 35 35 36 36 35 34 33 33 33 32 32 32 33 33 34 33 33 34 35 35 35 34 35 36 35 35 36 36 36 37 37 36 35 35 34 33 32
32 33 33 33 32 32 33 33 33 34 35 34 33 31 32 32 33 32 32 32 32 31 30 31 32 33 33 33 33 33 32 33 34 34 34 34 34 33 33 32 32 32 31 32
28 29 30 31 31 31 32 32 32 33 32 32 32 31 31 31 31 31 30 30 29 28 28 29 29 30 31 32 32 32 32 31 32 33 33 32 31 31 31 31 30 30 30 30
26 28 28 29 29 30 30 30 30 29 29 29 29 29 29 28 28 28 29 28 26 26 27 27 27 27 28 29 30 30 29 30 30 30 30 29 29 29 29 28 28 29 29 29
25 26 27 27 27 27 27 27 27 26 26 26 26 26 26 25 25 25 25 25 24 24 25 25 25 25 25 26 26 27 27 28 29 28 27 26 27 27 26 26 26 26 27 27
22 23 23 23 23 23 23 23 24 24 24 23 23 24 24 24 24 23 23 23 23 23 24 24 24 24 24 24 25 25 26 26 26 26 26 25 26 26 25 25 25 24 24 24
19 20 21 21 22 21 21 20 21 21 22 22 22 23 23 23 23 23 22 21 21 21 22 22 22 23 23 23 24 24 23 23 24 24 25 25 26 25 25 24 23 23 23 23
18 18 17 18 19 19 17 18 19 19 19 20 21 21 22 22 22 21 20 20 20 20 21 21 21 21 21 22 22 22 22 22 22 22 23 23 24 23 23 23 23 23 23 23
16 15 15 15 15 16 16 16 17 17 17 17 18 19 20 20 19 19 18 18 18 19 19 19 19 19 20 21 21 22 22 22 22 22 22 22 23 22 22 22 22 22 23 23

GEFSNGP_500_meanwind_324.txt.gz
Wind_Speed
25 24 24 24 24 23 24 23 24 23 22 20 20 18 18 18 18 18 18 17 17 17 18 19 19 20 20 20 21 21 21 22 22 23 23 22 22 22 22 22 23 23 23 24
28 27 27 26 25 25 25 26 27 25 24 23 22 22 21 20 19 20 20 20 20 20 21 21 22 23 23 22 22 23 24 25 25 25 25 24 24 24 24 25 25 25 26 27
29 29 28 28 26 27 27 27 27 28 26 25 24 23 23 22 21 22 23 22 23 23 23 23 24 23 23 24 25 26 26 27 27 27 26 26 26 26 26 27 27 28 28 28
30 29 31 28 27 28 29 29 28 28 29 28 26 25 26 26 26 25 25 27 26 26 26 26 26 26 26 26 26 27 28 28 28 28 28 27 27 28 28 28 29 29 29 29
32 32 31 29 27 27 29 29 28 28 28 28 28 28 27 28 28 28 28 29 28 27 27 27 27 28 27 27 27 28 30 30 29 29 29 29 29 29 29 30 30 30 30 31
33 34 33 30 29 28 29 29 28 28 29 28 28 29 29 29 30 30 31 30 30 30 29 29 29 30 29 30 30 30 31 31 31 31 31 31 31 31 31 31 31 31 32 32
33 34 35 32 30 30 31 30 29 28 28 29 29 30 30 30 31 31 31 31 32 32 32 32 32 32 31 31 31 32 32 32 32 32 32 32 32 33 33 33 33 33 33 34
34 35 34 32 32 32 32 32 30 29 30 30 31 31 32 31 31 30 31 32 32 33 33 34 34 34 34 34 33 34 34 34 34 34 34 34 34 34 35 34 34 35 35 36
34 34 33 32 32 32 32 33 33 33 32 32 33 33 34 33 33 32 32 33 33 33 34 35 35 35 35 35 36 36 35 35 35 36 35 35 35 35 35 35 35 36 37 36
34 33 32 32 32 32 33 34 34 34 34 33 33 34 33 33 34 33 34 34 35 35 35 35 36 36 37 37 37 37 37 36 36 36 36 36 36 36 36 36 37 37 37 37
34 34 33 33 33 33 34 34 35 35 35 35 35 35 35 34 34 34 34 34 35 36 37 37 37 37 37 38 38 38 38 38 38 37 37 37 36 36 36 37 37 37 36 35
33 33 33 33 34 34 35 35 35 36 36 36 35 36 36 36 35 36 36 36 36 37 38 38 38 38 37 38 38 38 38 38 37 37 37 37 36 36 36 37 37 38 37 35
33 33 33 34 35 35 35 36 36 36 36 36 36 36 36 36 36 36 36 36 36 37 38 38 37 37 37 38 38 37 37 37 37 36 36 36 36 36 36 37 37 37 36 36
34 34 34 35 36 36 36 36 36 35 35 35 36 36 37 36 36 36 36 36 36 37 37 37 36 36 37 37 37 37 36 36 36 36 36 36 36 36 37 37 36 36 36 36
34 34 35 34 35 35 35 35 35 35 35 34 35 35 35 35 35 35 35 35 35 35 35 35 35 36 36 35 35 35 35 35 35 35 35 36 36 36 36 36 36 35 35 35
33 34 34 33 33 34 34 34 34 34 34 34 33 33 33 33 34 34 35 35 35 35 35 34 34 35 35 34 34 35 34 34 35 35 35 35 35 34 34 35 35 35 35 34
32 32 32 33 34 34 33 33 33 33 33 32 32 33 33 34 34 35 35 35 35 35 34 34 34 33 34 33 34 33 32 32 32 33 34 34 34 34 35 35 34 34 33 33
32 33 33 33 33 33 33 32 32 32 32 33 33 33 33 34 34 35 34 34 35 34 33 33 33 33 32 32 31 31 31 31 31 32 32 33 33 33 33 32 31 31 32 32
30 31 31 31 31 32 31 31 31 31 32 33 33 32 32 33 33 33 33 33 32 32 32 32 31 30 30 30 30 30 30 30 30 30 30 30 31 31 31 30 30 30 31 31
28 29 30 31 31 31 31 31 32 32 32 32 32 32 32 32 32 31 31 31 31 31 30 29 28 29 29 29 29 29 28 28 27 27 28 29 29 30 30 29 29 30 29 29
27 28 29 29 30 29 29 30 30 29 29 30 31 30 30 30 30 29 29 29 30 29 28 28 28 27 26 27 27 27 27 27 25 25 27 27 28 28 28 27 27 28 28 28
25 26 26 26 27 27 27 27 28 27 27 28 28 27 27 28 27 27 27 28 28 28 26 26 25 25 24 25 26 27 26 25 25 25 26 26 26 26 27 27 26 26 26 26
23 23 23 23 23 23 23 24 25 25 26 25 25 25 25 24 24 24 25 25 25 25 25 24 23 24 23 22 23 24 24 24 23 24 24 24 25 26 26 25 24 24 25 26
20 20 21 22 22 22 22 22 23 23 23 23 22 23 23 22 22 23 23 23 22 22 22 22 21 21 21 21 21 21 21 21 21 22 22 22 23 23 23 23 23 23 24 25
18 18 19 20 19 19 19 20 20 21 21 20 20 20 19 19 20 21 21 19 19 19 18 19 18 19 19 19 18 18 19 20 20 21 20 20 20 21 22 22 22 23 24 24
15 16 16 16 17 17 17 17 18 18 19 18 18 17 18 18 18 18 17 16 15 16 16 17 17 17 17 17 17 17 18 18 19 20 20 20 20 21 21 21 22 22 22 21
14 14 14 14 14 15 15 15 14 15 15 15 16 17 17 16 15 15 15 15 15 16 16 17 17 17 16 16 17 17 18 19 19 20 20 21 21 21 21 21 22 22 21 21

GEFSNGP_500_meanwind_330.txt.gz
Wind_Speed
26 26 27 26 26 27 27 27 27 26 24 24 23 21 21 20 21 21 20 20 19 19 18 20 20 21 20 21 21 21 22 22 22 23 23 23 24 23 23 24 25 25 25 25
28 27 28 28 27 27 27 27 28 27 27 25 25 24 23 23 23 22 22 21 21 21 21 22 22 23 23 23 23 23 24 24 24 24 24 25 26 25 25 27 27 27 26 27
29 28 29 29 27 27 28 28 28 28 27 26 27 27 25 24 23 23 23 23 23 23 22 23 24 25 25 25 25 25 25 25 25 26 27 28 28 27 28 29 29 29 28 29
31 30 32 30 29 29 29 28 29 29 29 28 28 28 27 26 26 25 25 25 25 25 25 25 25 25 27 27 27 27 27 27 28 29 29 29 29 30 30 30 30 30 30 30
33 33 33 30 30 30 30 30 29 28 28 28 28 28 27 27 27 26 26 27 27 27 27 28 27 28 29 29 29 29 28 29 29 29 30 30 30 30 30 31 31 31 31 31
35 35 34 31 30 30 31 31 30 30 29 28 28 29 28 28 28 28 29 29 29 29 29 29 30 30 30 31 30 30 30 31 31 31 31 32 32 32 32 32 32 32 33 34
35 35 33 31 30 30 31 31 30 30 30 29 28 28 28 29 30 30 31 30 30 30 30 30 30 30 31 32 32 32 32 32 32 32 32 33 34 33 33 33 33 34 34 35
34 34 33 31 32 31 31 31 31 31 31 31 30 30 30 31 31 31 31 31 31 30 30 31 31 32 32 32 32 32 32 32 32 32 34 34 35 35 34 34 34 34 35 35
33 33 32 32 32 32 32 32 32 32 32 32 32 31 31 31 31 32 32 32 32 32 31 32 33 33 33 33 34 34 33 34 34 34 35 35 35 35 35 35 35 35 35 36
33 34 34 34 34 34 33 33 33 33 34 34 34 33 32 32 32 33 34 34 34 34 33 33 34 34 34 34 34 34 35 35 35 35 35 35 35 35 35 36 35 36 36 36
34 34 35 35 35 36 36 35 35 35 35 36 36 35 35 35 34 34 35 35 35 34 34 33 33 34 35 35 35 35 36 36 36 36 36 36 36 35 36 36 36 36 37 37
34 34 35 35 36 36 37 37 36 36 35 35 35 35 35 36 35 35 35 35 35 35 35 34 34 35 36 36 37 36 36 36 36 37 37 36 36 36 37 37 37 37 38 38
34 34 35 35 35 35 36 35 35 35 35 34 34 34 35 35 34 35 35 36 35 35 35 34 35 35 36 37 37 36 36 36 36 36 36 36 36 36 37 37 38 39 38 38
33 34 34 34 34 34 34 35 35 34 35 35 34 35 35 35 35 35 35 35 35 35 35 35 35 35 35 36 36 36 36 36 35 35 35 35 35 35 36 36 37 37 37 37
32 32 33 32 32 33 33 33 34 35 35 34 34 35 35 35 35 35 35 35 35 35 34 34 34 35 35 36 35 35 35 35 35 35 35 35 36 36 35 35 35 36 36 36
31 31 32 32 32 32 32 32 33 34 34 34 34 35 35 35 33 33 33 33 34 33 33 33 33 34 35 36 35 34 35 35 35 35 36 36 36 36 35 35 36 36 36 36
31 31 31 31 32 32 32 32 32 33 32 32 33 33 33 33 32 32 32 32 33 33 33 33 33 34 35 35 35 36 36 36 36 36 36 36 36 36 36 36 36 36 36 36
30 30 30 30 30 31 31 31 31 31 31 30 31 32 32 32 32 32 32 32 33 33 33 34 34 34 34 34 35 35 35 35 35 35 35 35 34 34 34 34 33 33 33 33
28 28 28 28 29 29 29 29 29 30 30 31 31 31 31 31 32 32 32 32 32 32 32 33 34 34 33 33 34 34 34 34 34 34 34 34 34 33 33 31 30 30 30 30
26 27 27 27 27 27 27 28 29 29 29 29 29 29 29 29 30 31 31 31 31 31 31 32 33 33 33 33 33 33 34 33 33 33 33 33 33 32 31 30 29 27 27 27
27 27 27 27 27 27 27 27 26 27 27 27 28 28 28 28 29 30 30 30 30 30 31 31 32 32 32 32 32 32 32 31 32 31 31 30 30 30 29 28 26 26 25 25
27 27 27 27 26 26 25 25 26 26 26 26 26 26 26 27 28 28 28 28 29 29 30 30 30 30 30 29 30 29 29 28 28 28 28 28 28 28 27 25 24 24 24 24
25 25 26 26 25 24 23 24 24 24 24 24 24 25 25 25 26 26 27 27 27 27 27 26 26 27 26 26 25 25 25 25 25 26 26 27 27 26 25 24 23 23 24 24
22 22 22 22 22 23 23 22 23 23 22 22 23 23 23 23 23 24 24 24 24 23 23 23 23 23 23 23 22 23 23 24 24 25 25 25 25 25 24 23 23 23 23 23
19 19 20 20 20 20 21 21 21 21 21 21 21 22 22 22 22 22 22 21 20 20 20 20 20 20 20 20 21 21 22 23 23 23 24 24 23 22 22 22 23 23 23 23
17 16 17 17 17 18 18 18 18 18 19 19 19 20 20 20 20 20 19 19 19 18 18 18 18 18 19 19 20 20 21 22 22 22 22 23 22 21 21 21 22 22 22 22
15 15 15 16 16 16 17 17 17 17 18 17 18 18 18 18 18 17 17 16 17 17 18 18 17 17 18 18 19 19 20 20 20 21 21 20 20 20 21 21 21 21 22 22

GEFSNGP_500_meanwind_336.txt.gz
Wind_Speed
25 24 24 25 24 25 25 24 23 22 22 22 22 23 23 22 22 22 22 21 21 21 21 21 21 22 22 22 22 22 23 24 24 24 24 24 23 24 23 23 23 24 24 24
26 26 26 27 26 25 26 26 26 25 25 24 24 24 24 24 24 23 23 22 22 23 23 24 24 24 24 24 25 25 25 25 25 25 26 26 26 26 26 27 26 26 25 25
26 26 27 27 26 26 27 27 27 28 27 27 27 26 26 25 25 25 25 24 24 24 25 26 26 26 26 27 27 27 27 27 27 27 27 28 28 28 28 28 28 28 28 28
27 27 28 27 27 27 27 28 28 29 29 28 28 27 26 26 27 26 26 26 26 26 26 27 28 28 28 28 28 28 28 29 29 29 29 29 30 30 30 30 29 29 29 29
29 29 29 28 28 28 28 29 28 29 29 29 28 27 27 27 27 26 27 27 26 27 27 27 27 29 30 29 29 30 29 29 29 30 30 30 31 30 30 30 30 30 30 30
31 31 30 30 29 28 28 30 28 29 29 29 28 27 27 27 27 27 28 28 28 28 28 28 28 29 29 30 30 30 30 30 30 30 30 30 30 30 30 30 31 31 31 30
32 32 32 32 31 29 30 30 29 29 29 28 29 29 29 28 28 28 29 29 29 29 29 29 30 30 31 31 32 32 32 31 31 31 31 30 30 31 31 31 32 32 32 32
33 33 33 33 32 31 31 31 31 30 30 30 30 30 30 30 30 30 30 30 30 30 30 30 31 32 32 33 33 33 33 33 33 32 31 31 31 32 32 33 33 33 33 33
33 34 34 33 33 32 32 32 31 31 30 31 31 31 31 31 31 31 31 31 31 31 32 32 32 33 33 33 33 34 34 35 35 34 33 32 33 33 34 34 34 34 33 33
33 33 33 33 32 32 32 32 31 31 31 31 31 31 32 32 32 32 32 32 32 32 32 33 33 33 33 33 34 35 35 35 35 35 34 34 34 34 35 35 35 35 35 34
32 32 32 32 32 32 32 32 32 32 32 32 32 33 32 33 33 33 33 33 33 33 33 33 33 33 33 33 34 35 35 34 33 33 34 34 34 34 35 35 36 36 36 36
32 32 33 33 33 33 33 33 33 33 34 34 33 34 34 34 34 34 34 34 34 34 34 34 34 34 34 34 34 34 34 34 34 33 34 34 35 35 35 35 35 35 36 37
31 31 32 32 32 32 32 33 33 34 34 34 34 34 35 35 35 35 36 35 35 35 34 34 34 34 35 35 34 34 34 35 35 35 35 35 35 35 35 35 35 35 35 35
30 31 31 31 32 32 32 32 33 34 34 34 34 34 35 35 35 35 35 36 35 35 34 34 34 34 34 34 34 34 34 35 35 35 36 36 35 35 35 35 35 35 35 35
30 30 31 32 32 32 32 32 33 33 34 34 34 34 34 34 34 34 34 34 34 34 34 34 34 34 34 33 34 33 34 34 35 35 35 36 35 35 35 34 35 35 35 35
28 29 30 30 30 30 30 30 31 32 32 32 32 32 32 33 32 33 33 33 33 33 33 33 33 34 33 33 33 33 34 35 35 35 35 35 35 35 34 34 35 35 35 35
28 28 28 29 28 28 28 28 29 29 30 31 31 32 31 31 32 32 32 32 32 33 33 33 33 34 33 33 34 34 34 35 35 35 34 35 34 33 33 33 34 34 34 34
28 28 28 28 27 27 27 27 27 27 28 29 30 30 31 31 31 31 31 31 31 32 32 33 33 34 34 34 34 35 35 34 34 35 34 33 33 32 32 32 32 32 32 32
27 27 27 27 27 27 27 27 27 26 27 27 28 28 28 29 29 30 30 30 31 31 31 32 32 32 33 34 35 35 35 34 33 33 32 32 31 31 31 31 31 31 32 32
24 24 25 25 26 25 25 25 25 25 25 26 26 26 26 27 27 28 30 30 31 31 31 31 30 30 31 31 31 32 32 32 31 31 30 30 30 30 30 31 31 32 32 31
22 22 22 22 23 23 23 23 23 24 24 25 25 25 26 26 27 28 29 29 29 29 28 28 29 29 29 29 29 29 29 30 30 29 28 29 29 29 30 30 30 31 31 30
20 21 21 21 22 22 22 22 23 23 24 24 24 25 25 26 26 26 26 27 26 27 27 26 26 26 27 27 27 27 28 27 27 27 27 27 27 28 28 28 29 29 29 29
20 20 20 20 20 21 22 22 22 23 23 23 24 24 24 24 24 24 24 24 24 25 25 25 25 25 25 25 25 25 25 24 24 25 25 25 26 26 26 26 27 27 27 26
19 18 18 19 19 20 21 21 21 21 21 21 22 22 22 22 22 23 23 23 22 23 23 23 24 24 24 24 24 24 23 23 23 22 23 23 24 24 25 25 25 26 26 25
17 17 17 17 17 18 18 18 19 19 19 20 20 21 21 21 21 22 21 21 21 22 22 22 22 22 22 22 22 22 21 21 21 21 21 21 22 23 23 24 24 24 24 24
15 14 15 15 16 16 16 16 17 17 18 19 19 20 20 20 20 20 20 20 20 20 20 20 21 21 21 21 20 19 19 20 20 20 21 22 22 22 22 23 23 24 23 23
13 13 14 14 15 15 15 15 15 16 17 17 18 18 18 18 19 19 19 19 19 19 19 19 20 21 20 19 18 18 19 19 20 20 21 21 21 21 21 21 21 21 20 20

GEFSNGP_500_meanwind_342.txt.gz
Wind_Speed
23 20 19 19 20 20 21 22 21 21 21 24 27 27 26 24 24 24 22 22 23 24 24 25 25 24 24 24 24 24 24 24 25 25 26 26 26 27 27 28 27 27 27 27
25 23 22 22 22 22 22 22 23 24 25 26 28 28 27 26 25 26 25 25 25 25 26 26 27 26 26 26 26 26 27 27 27 27 28 28 28 28 28 28 28 28 28 28
25 23 24 25 23 22 23 23 23 25 26 27 29 29 28 28 28 27 27 26 27 28 27 27 27 27 27 27 27 28 28 28 29 29 29 30 30 29 29 29 29 29 30 30
25 24 26 25 23 24 26 26 25 25 28 29 29 30 31 30 27 27 28 28 27 28 28 28 28 28 29 29 29 29 29 30 30 30 30 30 30 30 30 30 30 31 31 32
25 25 26 24 25 24 26 28 28 28 29 30 30 30 31 32 31 29 28 28 29 28 28 29 29 29 29 29 29 30 30 30 30 30 30 30 30 30 31 31 32 33 33 33
28 27 27 27 25 26 28 31 31 30 30 31 31 31 33 33 31 31 30 29 29 29 29 29 29 29 30 30 30 31 30 30 31 31 31 30 30 31 32 32 33 34 34 35
29 30 30 29 27 28 29 32 33 33 33 32 32 32 32 32 32 31 30 30 30 30 30 30 30 30 30 30 30 31 31 30 31 31 31 31 31 32 33 33 34 34 34 33
30 31 32 31 30 32 33 32 33 34 34 35 34 33 33 34 32 32 31 31 31 32 31 31 31 31 31 31 31 31 31 31 31 31 32 33 33 33 34 35 35 34 32 32
30 31 32 33 34 34 34 34 33 33 34 35 34 34 34 34 33 32 32 32 32 33 32 31 31 32 31 31 32 32 31 31 32 32 33 34 34 34 34 34 33 33 33 33
32 33 34 35 35 36 35 36 36 35 34 34 35 35 34 34 34 33 34 33 33 33 33 33 32 32 32 32 33 33 33 33 34 34 34 34 34 34 33 33 33 33 33 33
34 34 35 36 36 36 37 37 37 36 36 36 36 36 35 35 35 34 34 34 34 33 33 33 33 33 33 33 34 34 34 34 34 34 34 34 33 33 33 33 34 34 33 33
34 35 36 37 36 37 37 37 36 36 36 36 36 36 36 36 36 35 34 34 35 34 34 34 34 33 34 34 34 35 35 35 35 34 34 34 34 34 33 34 34 34 33 33
35 35 35 35 34 35 36 36 36 36 36 36 36 36 37 36 35 35 35 34 34 34 34 34 34 34 34 34 34 35 35 35 35 35 35 35 35 35 34 34 34 34 34 34
33 33 33 33 33 33 34 35 35 35 35 36 36 36 36 36 35 34 34 34 34 34 34 34 34 34 34 34 34 34 34 34 35 35 36 36 35 35 34 35 35 35 35 35
31 32 32 32 33 33 32 31 32 33 34 35 35 36 35 35 34 34 34 34 34 34 33 33 33 33 33 33 33 33 33 33 34 34 35 35 35 35 34 34 34 34 34 34
30 31 31 32 32 31 31 31 31 32 32 32 33 33 34 34 34 34 34 34 34 33 33 32 32 32 33 33 33 33 33 34 34 34 35 35 34 34 33 33 33 33 33 34
30 30 30 30 30 29 29 29 30 30 31 31 31 31 32 32 33 33 33 33 33 33 33 34 34 33 33 33 33 34 34 35 35 35 34 34 33 33 32 33 32 33 33 34
28 29 29 29 29 29 29 29 30 30 30 30 30 30 31 31 32 32 32 32 32 32 32 32 33 33 32 32 33 34 34 34 34 34 34 33 32 32 32 32 32 33 33 34
27 28 28 29 29 28 28 28 29 28 28 29 29 29 29 29 30 30 30 30 30 30 30 30 31 32 32 31 32 33 33 33 33 32 32 31 31 31 31 30 31 31 31 31
27 27 28 28 28 26 26 26 26 26 27 27 27 28 28 28 28 27 27 27 28 28 28 28 29 29 30 30 31 31 31 31 31 31 31 31 30 30 30 30 30 30 29 29
25 25 25 25 25 24 24 24 25 25 25 26 26 26 26 26 26 26 26 26 26 27 27 26 27 27 28 28 28 28 28 28 28 28 29 28 28 28 28 28 28 28 28 28
23 23 23 23 23 22 22 23 23 24 24 25 25 25 25 25 24 24 24 24 24 25 25 26 26 26 26 27 27 27 27 26 27 27 27 26 26 26 26 26 26 27 27 27
21 21 22 21 21 21 22 22 23 23 23 23 22 22 22 22 22 23 22 22 23 23 24 25 25 25 26 26 26 26 26 25 25 24 24 25 25 25 25 26 26 26 26 26
19 20 19 19 20 20 21 21 21 21 21 21 20 20 20 21 20 21 21 22 22 22 23 23 23 24 24 25 24 24 24 24 24 24 24 25 25 25 25 25 25 25 25 25
19 18 19 19 19 19 20 20 20 20 20 19 19 19 20 19 19 19 20 20 21 22 22 22 22 23 23 23 23 23 23 23 22 23 23 24 24 24 24 24 24 24 24 25
18 18 18 18 18 19 19 20 19 19 19 19 19 19 19 19 19 19 20 20 21 21 21 21 21 22 22 21 22 22 22 21 22 22 22 23 23 23 23 23 24 24 24 24
16 17 17 17 17 17 18 18 18 18 18 18 18 18 18 19 19 19 20 20 20 20 20 20 20 20 21 21 21 21 21 21 21 21 21 22 22 22 22 23 24 24 24 24